YAOGAN-30 N (44449 NORAD) Tracking and Keplerian Element Data

This shows tracking and keplerian element data for the satellite.

Feedback or suggestion? Click here.




ElementValue
Catalog44449
NameYAOGAN-30 N
Epoch Orbit3728
Epoch Day92.0158082
Epoch Year2020
RAAN286.3428
Inclination34.9975
Eccentricity0.0003042
Argument of Perigee142.1598
Mean Anonmoly217.9321
Mean Motion14.89737027
Decay Rate1.87E-06
L11 44449U 19045A 20092.01580820 .00000187 00000-0 21937-4 0 9993
L22 44449 34.9975 286.3428 0003042 142.1598 217.9321 14.89737027 37289

Live tracking and technical data element details for YAOGAN-30 N (NORAD 44449). YAOGAN-30 N can be tracked NOW for your location showing map with azimuth and elevation plus other details from your city location.

Track the satellite on the map from your city or location and see movement details for azimuth, elevation, latitude, longitude, range, height, and movement on the map or in text.







IsCatalogInMostPopularTable: catalog: 44449, numindb: 43
Update: records affected: 1



GetName: 44449 YAOGAN-30 N

Hit Count: updated at: Thu, 02 Apr 2020 14:02:05 GMT